{"data":{"norad_id":47504,"epoch":"2026-05-24T23:06:50.612256Z","epoch_age_seconds":74641,"freshness":"FRESH","line1":"1 47504U 21006CV  26144.96308579  .00011404  00000+0  25671-3 0  9996","line2":"2 47504  97.1127 147.3969 0010736 189.7487 170.3554 15.43388479296441","mean_motion":15.43388479,"eccentricity":0.0010736,"inclination_deg":97.1127,"raan_deg":147.3969,"arg_perigee_deg":189.7487,"mean_anomaly_deg":170.3554,"bstar":0.00025671,"rev_number":29644,"period_min":93.301201842132,"perigee_km":428.80154386561,"apogee_km":443.43311075721,"semimajor_km":6814.2543273114,"source":"CELESTRAK","updated_at":"2026-05-25T13:37:56.473480Z"}}